"Pseudo-MPEC" for P10LnXz
Created 2019 Jan 12 23:18:29 UT using Find_Orb
Click here for an explanation of pseudo-MPECs
Astrometry: P10LnXz C2019 01 10(4VEI)x1O'
AstrometryD.0y$3upt9!H2i48[\6go?UKd%Tj]w4k
F51 P10LnXz C2019 01 10oVAqhe+'FAq
redacted;g7jB/GK%8.#TdnX_WR.3M%U8d6^`.KQx
F51 P10LnXz C2019 01 10-[jh5.\GH9yVL6[eTr#:ZOk2w_@l1-TlQB[_$(-q'dQTT2s.^vIr
F51 P10LnXz KC2019 01 11I?2#1cymH#u0N#t%1(k^6*Z9V:T
clickaafeRBl;A_x4NL7+*Q:t
H21 P10LnXz KC2019 01 11S+]sKLm0g5o_3)g:uiyQMPlHeA\W0$do
herea]@%/4iQ#^j6BX*q
H21 P10LnXz KC2019 01 11wiY1S7u#R2C2v1!Mh:qY\Oc-Qm/L(2#\U6m/MBf%Tc7*umW=-OvC
H21 P10LnXz C2019 01 11.41087 10 12 56.20 -07 33 11.1 ~1BAI 21.0 GVNEOCPI52 P10LnXz C2019 01 11.41420 10 12 56.30 -07 33 22.2 ~1BAI 20.8 GVNEOCPI52 P10LnXz C2019 01 11.41752 10 12 56.43 -07 33 33.4 ~1BAI 20.6 GVNEOCPI52 P10LnXz C2019 01 11.42085 10 12 56.54 -07 33 44.4 ~1BAI 20.8 GVNEOCPI52 P10LnXz ^C2019 01 11.64317110 13 05.256-07 46 08.93 ~1BKI 20.68GVNEOCP568 P10LnXz ^C2019 01 11.64411610 13 05.289-07 46 12.13 ~1BKI 20.68GVNEOCP568 P10LnXz ^C2019 01 11.64506510 13 05.323-07 46 15.26 ~1BKI 20.65GVNEOCP568 P10LnXz KC2019 01 125iK8K[NDU:0[osLyH?1fL:boL
forHy\0mqyrdKS8Cwn^-)-[/`)O
291 P10LnXz KC2019 01 12l4XNDKyDxcI+Vl)$Pja]%pD/EoXU5jZ[Yl/#b!pJ!\q^:GO!_.q]
291 P10LnXz KC2019 01 12t`VSR?W
explanationJ(2t.]vD.Z^Uc_nr0Qi[8?a3:!jG.c$2k7
291 P10LnXz C2019 01 12.45925 10 13 39.84 -08 33 11.6 ~1CCI 21.8 GVNEOCPI52 P10LnXz C2019 01 12.46092 10 13 39.85 -08 33 17.0 ~1CCI 21.0 GVNEOCPI52 P10LnXz C2019 01 12.46258 10 13 39.86 -08 33 23.4 ~1CCI 20.4 GVNEOCPI52 Station data: (291) LPL/Spacewatch II (N31.961669 W111.599905) US/Arizona. Observers J. V. Scotti, R. S. McMillan. 1.8-m f/2.7 reflector + CCD. (568) Mauna Kea (N19.826116 W155.472200) US/Hawaii. (F51) Pan-STARRS 1, Haleakala (N20.707235 W156.255910) US/Hawaii. Observers N. Primak, A. Schultz, S. Watters, J. Thiel, T. Goggia. Measurer PS1 Science Consortium. 1.8-m Ritchey-Chrétien + CCD. (H21) Astronomical Research Observatory, Westfield (N39.483057 W87.968270) US/Illinois. 0.76-m f/3.0 astrograph + CCD. (I52) Steward Observatory, Mt. Lemmon Station (N32.442547 W110.788920) US/Arizona. Observers B. M. Africano, E. J. Christensen, G. A. Farneth, D. C. Fuls, A. R. Gibbs, A. D. Grauer, H. Groeller, J. A. Johnson, R. A. Kowalski, S. M. Larson, G. J. Leonard, R. L. Seaman, F. C. Shelly. 1.0-m reflector + CCD. Orbital elements: P10LnXz Perihelion 2019 Mar 30.032397 +/- 0.476 TT = 0:46:39 (JD 2458572.532397) Epoch 2019 Jan 12.0 TT = JDT 2458495.5 Earth MOID: 0.1955 Ve: 0.0932 M 329.61820170 +/- 2.2 Me: 0.0991 AutoNEOCP n 0.39440286 +/- 0.0259 Peri. 317.94385 +/- 1.0 a 1.84151815 +/- 0.0807 Node 284.40628 +/- 0.53 e 0.7006737 +/- 0.0129 Incl. 16.84365 +/- 0.44 P 2.50/912.76d H 20.8 G 0.15 U 10.3 q 0.55121476 +/- 0.00258 Q 3.13182154 +/- 0.151 From 19 observations 2019 Jan. 10-12 (46.2 hr); mean residual 0".28
Residuals in arcseconds: 190110 F51 .03- .09- 190111 I52 .17- .02+ 190112 291 .14- .17+ 190110 F51 .03+ .11- 190111 I52 .00 .07- 190112 291 .32- .27- 190110 F51 .04- .29+ 190111 I52 .13- .08+ 190112 I52 .64+ .37- 190111 H21 .11- .23- 190111 568 .22+ .07+ 190112 I52 .09- .11+ 190111 H21 .13+ .25- 190111 568 .20+ .07+ 190112 I52 .81- .44- 190111 H21 .30- .04+ 190111 568 .20+ .14+ 190111 I52 .12+ .02- 190112 291 .48+ .71+ Ephemerides (geocentric): Date (UTC) HH RA Dec delta r elong mag " sig PA ---- -- -- -- ------------- ----------- ------ ------ ----- --- ---- --- 2019 01 12 23 10 14 00.768 -09 02 40.80 .46824 1.3362 130.6 21.2 .363 119 2019 01 13 00 10 14 02.495 -09 05 11.61 .46763 1.3357 130.6 21.2 .380 117 2019 01 13 01 10 14 04.221 -09 07 42.74 .46703 1.3352 130.6 21.2 .398 115 2019 01 13 02 10 14 05.946 -09 10 14.19 .46642 1.3348 130.6 21.2 .417 113 2019 01 13 03 10 14 07.671 -09 12 45.96 .46582 1.3343 130.6 21.2 .436 111 2019 01 13 04 10 14 09.396 -09 15 18.07 .46522 1.3338 130.6 21.2 .457 110 2019 01 13 05 10 14 11.119 -09 17 50.50 .46461 1.3334 130.6 21.2 .478 108 2019 01 13 06 10 14 12.842 -09 20 23.25 .46401 1.3329 130.6 21.2 .500 107 2019 01 13 07 10 14 14.564 -09 22 56.34 .46341 1.3324 130.6 21.2 .523 105 2019 01 13 08 10 14 16.286 -09 25 29.75 .46280 1.3320 130.6 21.2 .546 104 2019 01 13 09 10 14 18.006 -09 28 03.50 .46220 1.3315 130.6 21.2 .571 103 2019 01 13 10 10 14 19.727 -09 30 37.58 .46160 1.3310 130.6 21.2 .596 102 2019 01 13 11 10 14 21.446 -09 33 11.99 .46100 1.3305 130.6 21.2 .622 101 2019 01 13 12 10 14 23.165 -09 35 46.74 .46040 1.3301 130.6 21.2 .648 99 2019 01 13 13 10 14 24.883 -09 38 21.82 .45980 1.3296 130.6 21.2 .676 98 2019 01 13 14 10 14 26.601 -09 40 57.23 .45920 1.3291 130.7 21.2 .704 97 2019 01 13 15 10 14 28.318 -09 43 32.99 .45860 1.3287 130.7 21.1 .733 97 2019 01 13 16 10 14 30.034 -09 46 09.08 .45800 1.3282 130.7 21.1 .762 96 2019 01 13 17 10 14 31.750 -09 48 45.51 .45740 1.3277 130.7 21.1 .792 95 2019 01 13 18 10 14 33.465 -09 51 22.28 .45680 1.3272 130.7 21.1 .823 94 2019 01 13 19 10 14 35.179 -09 53 59.39 .45621 1.3268 130.7 21.1 .855 93 2019 01 13 20 10 14 36.893 -09 56 36.85 .45561 1.3263 130.7 21.1 .887 93 2019 01 13 21 10 14 38.606 -09 59 14.65 .45501 1.3258 130.7 21.1 .920 92 2019 01 13 22 10 14 40.319 -10 01 52.79 .45441 1.3254 130.7 21.1 .954 91 2019 01 13 23 10 14 42.031 -10 04 31.28 .45382 1.3249 130.7 21.1 .989 91 2019 01 14 00 10 14 43.743 -10 07 10.11 .45322 1.3244 130.7 21.1 1.02 90 2019 01 14 01 10 14 45.453 -10 09 49.30 .45263 1.3239 130.7 21.1 1.06 89 2019 01 14 02 10 14 47.164 -10 12 28.83 .45203 1.3235 130.7 21.1 1.10 89 2019 01 14 03 10 14 48.874 -10 15 08.71 .45144 1.3230 130.7 21.1 1.13 88 2019 01 14 04 10 14 50.583 -10 17 48.95 .45084 1.3225 130.7 21.1 1.17 88 2019 01 14 05 10 14 52.291 -10 20 29.53 .45025 1.3221 130.7 21.1 1.21 87 2019 01 14 06 10 14 53.999 -10 23 10.47 .44965 1.3216 130.7 21.1 1.25 87 2019 01 14 07 10 14 55.707 -10 25 51.77 .44906 1.3211 130.7 21.1 1.29 86 2019 01 14 08 10 14 57.414 -10 28 33.42 .44847 1.3206 130.7 21.1 1.33 86 2019 01 14 09 10 14 59.121 -10 31 15.42 .44788 1.3202 130.7 21.1 1.37 85 2019 01 14 10 10 15 00.826 -10 33 57.79 .44728 1.3197 130.7 21.1 1.41 85 2019 01 14 11 10 15 02.532 -10 36 40.51 .44669 1.3192 130.7 21.1 1.46 85 2019 01 14 12 10 15 04.237 -10 39 23.60 .44610 1.3188 130.7 21.1 1.50 84 2019 01 14 13 10 15 05.941 -10 42 07.04 .44551 1.3183 130.7 21.1 1.54 84 2019 01 14 14 10 15 07.645 -10 44 50.85 .44492 1.3178 130.7 21.1 1.59 83 2019 01 14 15 10 15 09.348 -10 47 35.02 .44433 1.3173 130.8 21.1 1.63 83 2019 01 14 16 10 15 11.051 -10 50 19.55 .44374 1.3169 130.8 21.1 1.68 83 2019 01 14 17 10 15 12.754 -10 53 04.46 .44315 1.3164 130.8 21.1 1.73 82 2019 01 14 18 10 15 14.456 -10 55 49.72 .44256 1.3159 130.8 21.1 1.78 82 2019 01 14 19 10 15 16.157 -10 58 35.36 .44197 1.3154 130.8 21.1 1.82 82 2019 01 14 20 10 15 17.858 -11 01 21.37 .44138 1.3150 130.8 21.1 1.87 81 2019 01 14 21 10 15 19.559 -11 04 07.74 .44079 1.3145 130.8 21.1 1.92 81 2019 01 14 22 10 15 21.259 -11 06 54.49 .44021 1.3140 130.8 21.0 1.97 81